UAE351 LFRS-DTTJ

Flight info

Callsign UAE351
Flight time 2h 14m
Altitude 25000
Route LUGEN UM184 TUPAR/N0445F230 DCT CNA DCT SECHE/N0479F350 DCT SOVET DCT FJR DCT DIVKO DCT JUSQO DCT FIRRA DCT NAFOQ DCT SALMA UG6 DIMAO UZ147 KIRAS A856 TINAP
Aircraft B77W/H-SDE1E2E3FGHIJ2J3J4J5M1RWXY/LB1D1

Departure

Time 2026-04-24 10:06
Airport Nantes Atlantique Airport (LFRS)

Arrival

Time 2026-04-24 12:21
Airport Djerba Zarzis International Airport (DTTJ)
Time Latitude Longitude Altitude Speed Heading
2026-04-24 09:45 47.15957 -1.60236 104 ft 0 kts 161°
2026-04-24 09:45 47.15958 -1.60236 104 ft 0 kts 161°
2026-04-24 09:55 47.15950 -1.60237 104 ft 4 kts 187°
2026-04-24 09:55 47.15935 -1.60253 105 ft 4 kts 233°
2026-04-24 09:56 47.15949 -1.60219 104 ft 4 kts 249°
2026-04-24 09:56 47.15950 -1.60218 104 ft 0 kts 250°
2026-04-24 09:58 47.15950 -1.60219 104 ft 1 kts 250°
2026-04-24 09:58 47.15945 -1.60236 106 ft 3 kts 247°
2026-04-24 09:58 47.15934 -1.60272 107 ft 5 kts 246°
2026-04-24 09:59 47.15912 -1.60333 104 ft 8 kts 234°
2026-04-24 09:59 47.15868 -1.60384 104 ft 8 kts 211°
2026-04-24 09:59 47.15816 -1.60427 104 ft 8 kts 209°
2026-04-24 09:59 47.15765 -1.60467 106 ft 8 kts 207°
2026-04-24 10:00 47.15712 -1.60506 107 ft 8 kts 207°
2026-04-24 10:00 47.15660 -1.60545 107 ft 8 kts 207°
2026-04-24 10:00 47.15608 -1.60583 108 ft 8 kts 207°
2026-04-24 10:00 47.15556 -1.60622 108 ft 8 kts 207°
2026-04-24 10:01 47.15503 -1.60665 108 ft 9 kts 210°
2026-04-24 10:01 47.15442 -1.60715 107 ft 10 kts 206°
2026-04-24 10:01 47.15377 -1.60761 108 ft 10 kts 206°
2026-04-24 10:01 47.15311 -1.60809 107 ft 11 kts 207°
2026-04-24 10:02 47.15235 -1.60867 109 ft 13 kts 207°
2026-04-24 10:02 47.15149 -1.60932 107 ft 14 kts 207°
2026-04-24 10:02 47.15061 -1.60999 106 ft 15 kts 207°
2026-04-24 10:02 47.14962 -1.61075 105 ft 16 kts 207°
2026-04-24 10:03 47.14862 -1.61152 104 ft 16 kts 207°
2026-04-24 10:03 47.14761 -1.61229 106 ft 16 kts 207°
2026-04-24 10:03 47.14660 -1.61306 105 ft 16 kts 207°
2026-04-24 10:03 47.14551 -1.61389 102 ft 18 kts 207°
2026-04-24 10:04 47.14438 -1.61475 102 ft 18 kts 207°
2026-04-24 10:04 47.14317 -1.61567 98 ft 21 kts 207°
2026-04-24 10:04 47.14197 -1.61662 96 ft 19 kts 216°
2026-04-24 10:04 47.14150 -1.61831 97 ft 19 kts 282°
2026-04-24 10:05 47.14241 -1.61887 96 ft 16 kts 24°
2026-04-24 10:05 47.14262 -1.61873 97 ft 0 kts 25°
2026-04-24 10:06 47.14386 -1.61786 101 ft 67 kts 26°
2026-04-24 10:06 47.16482 -1.60151 910 ft 232 kts 30°
2026-04-24 10:06 47.17639 -1.58731 2526 ft 203 kts 62°
2026-04-24 10:07 47.17905 -1.56744 3312 ft 209 kts 100°
2026-04-24 10:07 47.17137 -1.54826 3676 ft 235 kts 140°
2026-04-24 10:07 47.15612 -1.53851 4280 ft 247 kts 162°
2026-04-24 10:07 47.13941 -1.53075 4988 ft 255 kts 158°
2026-04-24 10:08 47.12252 -1.52156 5858 ft 261 kts 156°
2026-04-24 10:08 47.10544 -1.51178 6742 ft 265 kts 156°
2026-04-24 10:08 47.08816 -1.50175 7610 ft 269 kts 156°
2026-04-24 10:08 47.07073 -1.49144 8429 ft 269 kts 152°
2026-04-24 10:09 47.05506 -1.47632 9053 ft 274 kts 138°
2026-04-24 10:09 47.04080 -1.45742 9843 ft 278 kts 135°
2026-04-24 10:09 47.02665 -1.43779 10586 ft 285 kts 135°
2026-04-24 10:09 47.01160 -1.41716 10887 ft 311 kts 136°
2026-04-24 10:10 46.99491 -1.39466 11106 ft 340 kts 136°
2026-04-24 10:10 46.97675 -1.37048 11427 ft 363 kts 137°
2026-04-24 10:10 46.95767 -1.34533 12138 ft 377 kts 137°
2026-04-24 10:10 46.93803 -1.31966 12871 ft 389 kts 138°
2026-04-24 10:11 46.91731 -1.29272 13815 ft 396 kts 138°
2026-04-24 10:11 46.89681 -1.26613 14759 ft 401 kts 138°
2026-04-24 10:11 46.87581 -1.23886 15729 ft 405 kts 138°
2026-04-24 10:11 46.85464 -1.21141 16685 ft 410 kts 137°
2026-04-24 10:12 46.83299 -1.18339 17430 ft 420 kts 137°
2026-04-24 10:12 46.81092 -1.15481 18271 ft 427 kts 137°
2026-04-24 10:12 46.78860 -1.12590 19120 ft 430 kts 137°
2026-04-24 10:12 46.76600 -1.09663 19802 ft 439 kts 137°
2026-04-24 10:13 46.74298 -1.06689 20580 ft 443 kts 138°
2026-04-24 10:13 46.71979 -1.03694 21264 ft 451 kts 138°
2026-04-24 10:13 46.69609 -1.00638 21905 ft 458 kts 138°
2026-04-24 10:13 46.67207 -0.97545 22631 ft 463 kts 139°
2026-04-24 10:14 46.64789 -0.94436 23551 ft 462 kts 139°
2026-04-24 10:14 46.62379 -0.91336 24313 ft 464 kts 139°
2026-04-24 10:14 46.59941 -0.88205 24852 ft 470 kts 139°
2026-04-24 10:14 46.57474 -0.85043 25358 ft 477 kts 139°
2026-04-24 10:15 46.55013 -0.81877 25968 ft 479 kts 139°
2026-04-24 10:15 46.52485 -0.78616 26649 ft 481 kts 139°
2026-04-24 10:15 46.50006 -0.75421 27113 ft 487 kts 139°
2026-04-24 10:15 46.47419 -0.72096 27587 ft 492 kts 139°
2026-04-24 10:16 46.44768 -0.68956 28110 ft 494 kts 145°
2026-04-24 10:16 46.41864 -0.66365 28650 ft 496 kts 153°
2026-04-24 10:16 46.38734 -0.64268 29143 ft 498 kts 160°
2026-04-24 10:16 46.35429 -0.62700 29594 ft 500 kts 165°
2026-04-24 10:17 46.32086 -0.61272 30087 ft 502 kts 165°
2026-04-24 10:17 46.28751 -0.59786 30565 ft 501 kts 164°
2026-04-24 10:17 46.25433 -0.58274 31142 ft 498 kts 163°
2026-04-24 10:17 46.22144 -0.56759 31686 ft 496 kts 163°
2026-04-24 10:18 46.18859 -0.55242 32209 ft 494 kts 163°
2026-04-24 10:18 46.15584 -0.53733 32687 ft 493 kts 163°
2026-04-24 10:18 46.12330 -0.52237 33254 ft 490 kts 163°
2026-04-24 10:18 46.09087 -0.50751 33784 ft 488 kts 163°
2026-04-24 10:19 46.05852 -0.49271 34212 ft 488 kts 163°
2026-04-24 10:19 46.02658 -0.47814 34558 ft 487 kts 163°
2026-04-24 10:19 45.99442 -0.46348 34984 ft 485 kts 163°
2026-04-24 10:19 45.96219 -0.44880 35405 ft 483 kts 163°
2026-04-24 10:20 45.93029 -0.43429 35926 ft 479 kts 163°
2026-04-24 10:20 45.89860 -0.41989 36352 ft 476 kts 163°
2026-04-24 10:20 45.86699 -0.40554 36685 ft 476 kts 163°
2026-04-24 10:20 45.83549 -0.39126 37021 ft 475 kts 163°
2026-04-24 10:21 45.80378 -0.37690 37069 ft 479 kts 163°
2026-04-24 10:21 45.74022 -0.34816 37104 ft 475 kts 163°
2026-04-24 10:22 45.67759 -0.31991 37106 ft 470 kts 162°
2026-04-24 10:22 45.61743 -0.28381 37112 ft 470 kts 154°
2026-04-24 10:23 45.55875 -0.24217 37108 ft 471 kts 155°
2026-04-24 10:23 45.49985 -0.20127 37104 ft 471 kts 155°
2026-04-24 10:24 45.44081 -0.16064 37106 ft 471 kts 155°
2026-04-24 10:24 45.38178 -0.12014 37097 ft 471 kts 155°
2026-04-24 10:25 45.32269 -0.07966 37104 ft 471 kts 155°
2026-04-24 10:25 45.26373 -0.03934 37108 ft 471 kts 155°
2026-04-24 10:26 45.20467 0.00094 37093 ft 471 kts 155°
2026-04-24 10:26 45.14555 0.04118 37100 ft 471 kts 155°
2026-04-24 10:27 45.08637 0.08135 37100 ft 472 kts 155°
2026-04-24 10:27 45.02742 0.12128 37098 ft 473 kts 155°
2026-04-24 10:28 44.96799 0.16145 37102 ft 474 kts 155°
2026-04-24 10:28 44.90854 0.20154 37101 ft 474 kts 155°
2026-04-24 10:29 44.84896 0.24164 37097 ft 474 kts 155°
2026-04-24 10:29 44.78947 0.28155 37101 ft 474 kts 155°
2026-04-24 10:30 44.72993 0.32143 37097 ft 473 kts 155°
2026-04-24 10:30 44.68060 0.35440 37098 ft 473 kts 155°
2026-04-24 10:31 44.62118 0.39403 37095 ft 473 kts 155°
2026-04-24 10:31 44.56170 0.43361 37100 ft 474 kts 155°
2026-04-24 10:32 44.50202 0.47325 37095 ft 475 kts 155°
2026-04-24 10:32 44.44701 0.52262 37093 ft 473 kts 131°
2026-04-24 10:32 44.42835 0.56055 37102 ft 474 kts 116°
2026-04-24 10:33 44.41684 0.60361 37083 ft 472 kts 106°
2026-04-24 10:33 44.39786 0.69207 37097 ft 477 kts 108°
2026-04-24 10:34 44.37745 0.78078 37104 ft 481 kts 108°
2026-04-24 10:34 44.35657 0.86996 37106 ft 483 kts 108°
2026-04-24 10:35 44.33558 0.95932 37098 ft 485 kts 108°
2026-04-24 10:35 44.31466 1.04815 37100 ft 484 kts 108°
2026-04-24 10:36 44.29359 1.13732 37095 ft 482 kts 108°
2026-04-24 10:36 44.27252 1.22612 37095 ft 482 kts 108°
2026-04-24 10:37 44.25141 1.31473 37110 ft 481 kts 108°
2026-04-24 10:37 44.23020 1.40344 37100 ft 481 kts 108°
2026-04-24 10:38 44.20897 1.49187 37102 ft 481 kts 108°
2026-04-24 10:38 44.18779 1.57975 37097 ft 482 kts 108°
2026-04-24 10:39 44.16637 1.66831 37103 ft 482 kts 108°
2026-04-24 10:39 44.14488 1.75687 37113 ft 484 kts 108°
2026-04-24 10:40 44.12320 1.84565 37108 ft 485 kts 108°
2026-04-24 10:40 44.10143 1.93439 37107 ft 485 kts 108°
2026-04-24 10:41 44.07954 2.02335 37113 ft 486 kts 108°
2026-04-24 10:41 44.05760 2.11226 37117 ft 487 kts 108°
2026-04-24 10:42 44.03551 2.20137 37121 ft 487 kts 108°
2026-04-24 10:42 44.01335 2.29046 37116 ft 488 kts 108°
2026-04-24 10:43 43.99119 2.37918 37125 ft 487 kts 108°
2026-04-24 10:43 43.96887 2.46820 37136 ft 487 kts 108°
2026-04-24 10:44 43.94653 2.55696 37128 ft 487 kts 108°
2026-04-24 10:44 43.92429 2.64502 37146 ft 487 kts 108°
2026-04-24 10:45 43.90182 2.73360 37142 ft 487 kts 108°
2026-04-24 10:45 43.87928 2.82215 37147 ft 487 kts 108°
2026-04-24 10:46 43.85670 2.91051 37155 ft 486 kts 108°
2026-04-24 10:46 43.83403 2.99888 37158 ft 486 kts 107°
2026-04-24 10:47 43.81136 3.08695 37172 ft 486 kts 108°
2026-04-24 10:47 43.78858 3.17507 37160 ft 486 kts 108°
2026-04-24 10:48 43.76591 3.26250 37172 ft 484 kts 108°
2026-04-24 10:48 43.74309 3.35012 37170 ft 483 kts 108°
2026-04-24 10:49 43.72029 3.43739 37164 ft 483 kts 108°
2026-04-24 10:49 43.69741 3.52464 37171 ft 482 kts 108°
2026-04-24 10:50 43.67447 3.61183 37174 ft 482 kts 108°
2026-04-24 10:50 43.65150 3.69878 37168 ft 482 kts 108°
2026-04-24 10:51 43.62843 3.78581 37170 ft 482 kts 108°
2026-04-24 10:51 43.60533 3.87268 37177 ft 483 kts 108°
2026-04-24 10:52 43.57959 3.95763 37177 ft 485 kts 117°
2026-04-24 10:52 43.54130 4.03412 37183 ft 487 kts 130°
2026-04-24 10:53 43.49569 4.10336 37186 ft 488 kts 131°
2026-04-24 10:53 43.45029 4.17298 37181 ft 488 kts 130°
2026-04-24 10:54 43.40518 4.24264 37181 ft 488 kts 130°
2026-04-24 10:54 43.35994 4.31249 37181 ft 489 kts 130°
2026-04-24 10:55 43.31458 4.38231 37177 ft 490 kts 130°
2026-04-24 10:55 43.26919 4.45198 37181 ft 490 kts 130°
2026-04-24 10:56 43.22363 4.52173 37179 ft 491 kts 130°
2026-04-24 10:56 43.17823 4.59109 37191 ft 491 kts 130°
2026-04-24 10:57 43.13264 4.66058 37189 ft 490 kts 130°
2026-04-24 10:57 43.08679 4.72988 37187 ft 491 kts 133°
2026-04-24 10:58 43.03185 4.78528 37189 ft 495 kts 152°
2026-04-24 10:58 42.96729 4.81775 37201 ft 496 kts 162°
2026-04-24 10:59 42.90133 4.84579 37173 ft 497 kts 161°
2026-04-24 10:59 42.83552 4.87501 37174 ft 497 kts 161°
2026-04-24 11:00 42.76967 4.90433 37187 ft 498 kts 161°
2026-04-24 11:00 42.70338 4.93175 37182 ft 499 kts 166°
2026-04-24 11:01 42.63620 4.95283 37194 ft 499 kts 167°
2026-04-24 11:01 42.56850 4.97326 37173 ft 497 kts 167°
2026-04-24 11:02 42.50119 4.99416 37177 ft 494 kts 166°
2026-04-24 11:02 42.43432 5.01527 37181 ft 493 kts 166°
2026-04-24 11:03 42.36725 5.03647 37183 ft 494 kts 166°
2026-04-24 11:03 42.30036 5.05754 37181 ft 494 kts 166°
2026-04-24 11:04 42.23318 5.07863 37185 ft 497 kts 166°
2026-04-24 11:04 42.16567 5.09976 37193 ft 499 kts 166°
2026-04-24 11:05 42.09794 5.12093 37189 ft 501 kts 166°
2026-04-24 11:05 42.03041 5.14199 37181 ft 502 kts 167°
2026-04-24 11:06 41.96220 5.16321 37178 ft 503 kts 167°
2026-04-24 11:06 41.89386 5.18442 37190 ft 504 kts 167°
2026-04-24 11:07 41.79131 5.21618 37177 ft 503 kts 167°
2026-04-24 11:07 41.72308 5.23725 37187 ft 503 kts 167°
2026-04-24 11:08 41.65537 5.25819 37181 ft 502 kts 166°
2026-04-24 11:08 41.58902 5.28693 37200 ft 501 kts 159°
2026-04-24 11:09 41.52353 5.31954 37184 ft 501 kts 159°
2026-04-24 11:09 41.45800 5.35153 37189 ft 502 kts 160°
2026-04-24 11:10 41.39225 5.38313 37173 ft 502 kts 160°
2026-04-24 11:10 41.32635 5.41461 37183 ft 503 kts 160°
2026-04-24 11:11 41.26049 5.44603 37182 ft 503 kts 160°
2026-04-24 11:11 41.19485 5.47731 37176 ft 504 kts 160°
2026-04-24 11:12 41.12873 5.50876 37175 ft 504 kts 160°
2026-04-24 11:12 41.06263 5.54013 37176 ft 505 kts 160°
2026-04-24 11:13 40.99643 5.57148 37173 ft 505 kts 160°
2026-04-24 11:13 40.93054 5.60261 37183 ft 505 kts 160°
2026-04-24 11:14 40.86419 5.63390 37177 ft 506 kts 160°
2026-04-24 11:14 40.79794 5.66507 37184 ft 506 kts 160°
2026-04-24 11:15 40.73170 5.69618 37177 ft 505 kts 160°
2026-04-24 11:15 40.66538 5.72725 37186 ft 506 kts 160°
2026-04-24 11:16 40.59899 5.75830 37178 ft 506 kts 160°
2026-04-24 11:16 40.53263 5.78926 37172 ft 506 kts 160°
2026-04-24 11:17 40.46614 5.82023 37182 ft 507 kts 160°
2026-04-24 11:17 40.41173 5.84872 37166 ft 507 kts 154°
2026-04-24 11:18 40.34819 5.88931 37175 ft 506 kts 153°
2026-04-24 11:18 40.28496 5.92980 37169 ft 506 kts 154°
2026-04-24 11:19 40.22138 5.96980 37173 ft 507 kts 154°
2026-04-24 11:19 40.15770 6.00948 37171 ft 507 kts 154°
2026-04-24 11:20 40.09398 6.04906 37165 ft 507 kts 154°
2026-04-24 11:20 40.03037 6.08852 37177 ft 506 kts 155°
2026-04-24 11:21 39.96668 6.12797 37178 ft 507 kts 154°
2026-04-24 11:21 39.90290 6.16740 37168 ft 508 kts 154°
2026-04-24 11:22 39.83938 6.20658 37156 ft 508 kts 155°
2026-04-24 11:22 39.77553 6.24589 37172 ft 508 kts 155°
2026-04-24 11:23 39.71151 6.28522 37168 ft 508 kts 155°
2026-04-24 11:23 39.64745 6.32449 37167 ft 509 kts 155°
2026-04-24 11:24 39.58341 6.36367 37156 ft 508 kts 155°
2026-04-24 11:24 39.51945 6.40272 37161 ft 508 kts 155°
2026-04-24 11:25 39.45549 6.44169 37160 ft 508 kts 155°
2026-04-24 11:25 39.39159 6.48054 37168 ft 508 kts 155°
2026-04-24 11:26 39.32743 6.51948 37164 ft 509 kts 155°
2026-04-24 11:26 39.26330 6.55832 37162 ft 509 kts 155°
2026-04-24 11:27 39.19904 6.59716 37158 ft 510 kts 155°
2026-04-24 11:27 39.13524 6.63565 37149 ft 510 kts 156°
2026-04-24 11:28 39.07099 6.67433 37161 ft 510 kts 156°
2026-04-24 11:28 39.00671 6.71296 37154 ft 509 kts 156°
2026-04-24 11:29 38.94172 6.74943 37151 ft 509 kts 159°
2026-04-24 11:29 38.87587 6.78280 37159 ft 508 kts 160°
2026-04-24 11:30 38.81001 6.81616 37158 ft 508 kts 159°
2026-04-24 11:30 38.74443 6.84996 37154 ft 508 kts 159°
2026-04-24 11:31 38.67924 6.88379 37149 ft 509 kts 159°
2026-04-24 11:31 38.61356 6.91783 37145 ft 509 kts 159°
2026-04-24 11:32 38.54779 6.95182 37140 ft 510 kts 159°
2026-04-24 11:32 38.48196 6.98574 37136 ft 510 kts 159°
2026-04-24 11:33 38.41641 7.01946 37136 ft 510 kts 160°
2026-04-24 11:33 38.35059 7.05324 37135 ft 510 kts 160°
2026-04-24 11:34 38.28481 7.08694 37143 ft 509 kts 160°
2026-04-24 11:34 38.21913 7.12052 37142 ft 509 kts 160°
2026-04-24 11:35 38.15329 7.15413 37139 ft 509 kts 160°
2026-04-24 11:35 38.08755 7.18761 37117 ft 509 kts 160°
2026-04-24 11:36 38.02189 7.22099 37132 ft 508 kts 160°
2026-04-24 11:36 37.95619 7.25432 37126 ft 508 kts 160°
2026-04-24 11:37 37.89094 7.28736 37125 ft 508 kts 160°
2026-04-24 11:37 37.82521 7.32058 37121 ft 508 kts 160°
2026-04-24 11:38 37.75949 7.35373 37120 ft 508 kts 160°
2026-04-24 11:38 37.69371 7.38685 37111 ft 508 kts 160°
2026-04-24 11:39 37.62792 7.41991 37116 ft 508 kts 160°
2026-04-24 11:39 37.56212 7.45291 37107 ft 508 kts 160°
2026-04-24 11:40 37.49682 7.48560 37107 ft 508 kts 160°
2026-04-24 11:40 37.43112 7.51843 37100 ft 508 kts 160°
2026-04-24 11:41 37.36545 7.55118 37098 ft 508 kts 160°
2026-04-24 11:41 37.29967 7.58393 37108 ft 508 kts 160°
2026-04-24 11:42 37.23398 7.61656 37096 ft 509 kts 160°
2026-04-24 11:42 37.16809 7.64924 37094 ft 509 kts 160°
2026-04-24 11:43 37.10209 7.68191 37089 ft 510 kts 160°
2026-04-24 11:43 37.03652 7.71431 37082 ft 510 kts 160°
2026-04-24 11:44 36.97046 7.74690 37065 ft 510 kts 160°
2026-04-24 11:44 36.90435 7.77945 37074 ft 510 kts 160°
2026-04-24 11:45 36.84034 7.81762 37067 ft 512 kts 148°
2026-04-24 11:45 36.78502 7.87357 37073 ft 513 kts 134°
2026-04-24 11:46 36.73642 7.93859 37079 ft 513 kts 133°
2026-04-24 11:46 36.68726 8.00312 37083 ft 514 kts 134°
2026-04-24 11:47 36.63765 8.06739 37067 ft 514 kts 134°
2026-04-24 11:47 36.58795 8.13154 37071 ft 515 kts 134°
2026-04-24 11:48 36.53816 8.19575 37071 ft 516 kts 134°
2026-04-24 11:48 36.48840 8.25986 37070 ft 516 kts 134°
2026-04-24 11:49 36.43850 8.32401 37074 ft 515 kts 134°
2026-04-24 11:49 36.38567 8.38418 37087 ft 516 kts 144°
2026-04-24 11:50 36.32578 8.43326 37079 ft 516 kts 148°
2026-04-24 11:50 36.26565 8.48215 37081 ft 518 kts 148°
2026-04-24 11:51 36.20599 8.53133 37088 ft 518 kts 147°
2026-04-24 11:51 36.14594 8.58090 37082 ft 518 kts 148°
2026-04-24 11:52 36.08598 8.63025 37066 ft 518 kts 148°
2026-04-24 11:52 36.02599 8.67949 37074 ft 517 kts 148°
2026-04-24 11:53 35.96609 8.72855 37082 ft 516 kts 148°
2026-04-24 11:53 35.90626 8.77748 37072 ft 516 kts 148°
2026-04-24 11:54 35.84641 8.82632 37077 ft 516 kts 148°
2026-04-24 11:54 35.78654 8.87510 37074 ft 516 kts 148°
2026-04-24 11:55 35.72657 8.92387 37074 ft 516 kts 148°
2026-04-24 11:55 35.66660 8.97256 37085 ft 516 kts 148°
2026-04-24 11:56 35.60664 9.02116 37063 ft 517 kts 148°
2026-04-24 11:56 35.54660 9.06972 37091 ft 517 kts 148°
2026-04-24 11:57 35.48567 9.11669 37091 ft 517 kts 150°
2026-04-24 11:57 35.42421 9.16253 37097 ft 518 kts 150°
2026-04-24 11:58 35.36283 9.20842 36382 ft 529 kts 150°
2026-04-24 11:58 35.33129 9.23210 35546 ft 532 kts 150°
2026-04-24 11:58 35.29977 9.25582 34663 ft 533 kts 150°
2026-04-24 11:59 35.26806 9.27969 33721 ft 534 kts 149°
2026-04-24 11:59 35.23644 9.30350 32723 ft 536 kts 149°
2026-04-24 11:59 35.20468 9.32737 31720 ft 537 kts 149°
2026-04-24 11:59 35.17283 9.35128 30725 ft 538 kts 149°
2026-04-24 12:00 35.14081 9.37529 29889 ft 536 kts 149°
2026-04-24 12:00 35.10927 9.39891 29148 ft 529 kts 149°
2026-04-24 12:00 35.07802 9.42229 28472 ft 522 kts 149°
2026-04-24 12:00 35.04727 9.44528 27827 ft 516 kts 149°
2026-04-24 12:01 35.01678 9.46805 27189 ft 511 kts 149°
2026-04-24 12:01 34.98662 9.49055 26529 ft 506 kts 149°
2026-04-24 12:01 34.95667 9.51287 25896 ft 502 kts 149°
2026-04-24 12:01 34.92705 9.53492 25252 ft 497 kts 149°
2026-04-24 12:02 34.89768 9.55677 24647 ft 493 kts 149°
2026-04-24 12:02 34.86843 9.57852 24014 ft 490 kts 148°
2026-04-24 12:02 34.83939 9.60010 23326 ft 487 kts 148°
2026-04-24 12:02 34.81065 9.62143 22643 ft 483 kts 148°
2026-04-24 12:03 34.78203 9.64266 22000 ft 478 kts 148°
2026-04-24 12:03 34.75376 9.66362 21368 ft 473 kts 148°
2026-04-24 12:03 34.73519 9.67737 20980 ft 470 kts 148°
2026-04-24 12:03 34.69849 9.70452 20179 ft 463 kts 148°
2026-04-24 12:04 34.67112 9.72475 19593 ft 459 kts 148°
2026-04-24 12:04 34.64399 9.74480 18996 ft 454 kts 148°
2026-04-24 12:04 34.62579 9.75824 18609 ft 452 kts 148°
2026-04-24 12:04 34.59905 9.77796 17937 ft 448 kts 148°
2026-04-24 12:05 34.57277 9.79734 17274 ft 429 kts 148°
2026-04-24 12:05 34.54044 9.82115 16545 ft 393 kts 148°
2026-04-24 12:05 34.52495 9.83255 16202 ft 378 kts 148°
2026-04-24 12:05 34.50296 9.84874 15722 ft 362 kts 148°
2026-04-24 12:06 34.48162 9.86443 15267 ft 356 kts 148°
2026-04-24 12:06 34.46029 9.88012 14791 ft 364 kts 148°
2026-04-24 12:06 34.43794 9.89655 14300 ft 388 kts 148°
2026-04-24 12:06 34.41513 9.91532 13717 ft 402 kts 140°
2026-04-24 12:07 34.39514 9.93783 13125 ft 391 kts 131°
2026-04-24 12:07 34.37866 9.96301 12568 ft 370 kts 123°
2026-04-24 12:07 34.36413 9.98794 12072 ft 360 kts 124°
2026-04-24 12:07 34.34925 10.01235 11597 ft 363 kts 124°
2026-04-24 12:08 34.33369 10.03758 11123 ft 386 kts 125°
2026-04-24 12:08 34.31763 10.06358 10973 ft 379 kts 124°
2026-04-24 12:08 34.30230 10.08836 10772 ft 355 kts 124°
2026-04-24 12:08 34.28810 10.11131 10596 ft 327 kts 124°
2026-04-24 12:09 34.27505 10.13244 10456 ft 300 kts 124°
2026-04-24 12:09 34.26304 10.15193 10330 ft 281 kts 123°
2026-04-24 12:09 34.25099 10.17160 10279 ft 301 kts 124°
2026-04-24 12:09 34.23826 10.19237 10153 ft 310 kts 124°
2026-04-24 12:10 34.22528 10.21347 9850 ft 313 kts 124°
2026-04-24 12:10 34.21246 10.23426 9474 ft 305 kts 124°
2026-04-24 12:10 34.19992 10.25456 9130 ft 298 kts 124°
2026-04-24 12:11 34.17526 10.29452 8487 ft 296 kts 124°
2026-04-24 12:11 34.16301 10.31437 8158 ft 295 kts 124°
2026-04-24 12:11 34.15076 10.33418 7830 ft 294 kts 124°
2026-04-24 12:11 34.13855 10.35391 7500 ft 292 kts 124°
2026-04-24 12:12 34.12645 10.37310 7197 ft 290 kts 129°
2026-04-24 12:12 34.10697 10.39536 6763 ft 288 kts 140°
2026-04-24 12:12 34.09664 10.40548 6561 ft 287 kts 140°
2026-04-24 12:12 34.08115 10.42049 6225 ft 284 kts 140°
2026-04-24 12:13 34.06568 10.43564 5906 ft 281 kts 140°
2026-04-24 12:13 34.05095 10.45021 5585 ft 277 kts 139°
2026-04-24 12:13 34.03624 10.46490 5271 ft 273 kts 139°
2026-04-24 12:13 34.02171 10.47951 4969 ft 270 kts 139°
2026-04-24 12:14 34.00750 10.49385 4638 ft 263 kts 138°
2026-04-24 12:14 33.99397 10.50754 4332 ft 245 kts 138°
2026-04-24 12:14 33.98131 10.52035 4046 ft 230 kts 137°
2026-04-24 12:14 33.96947 10.53236 3796 ft 214 kts 137°
2026-04-24 12:15 33.95847 10.54354 3530 ft 200 kts 136°
2026-04-24 12:15 33.94823 10.55395 3357 ft 191 kts 136°
2026-04-24 12:15 33.93794 10.56443 3279 ft 194 kts 137°
2026-04-24 12:15 33.92781 10.57471 3181 ft 185 kts 137°
2026-04-24 12:16 33.91827 10.58439 3079 ft 174 kts 138°
2026-04-24 12:16 33.90912 10.59365 2907 ft 169 kts 136°
2026-04-24 12:16 33.90030 10.60261 2758 ft 167 kts 135°
2026-04-24 12:16 33.89158 10.61152 2543 ft 159 kts 136°
2026-04-24 12:17 33.88341 10.61975 2322 ft 148 kts 135°
2026-04-24 12:17 33.87593 10.62798 2133 ft 142 kts 120°
2026-04-24 12:17 33.87381 10.63899 2090 ft 146 kts 77°
2026-04-24 12:17 33.87505 10.64591 1900 ft 148 kts 78°
2026-04-24 12:18 33.87438 10.65675 1716 ft 139 kts 102°
2026-04-24 12:18 33.87260 10.66821 1514 ft 140 kts 84°
2026-04-24 12:18 33.87364 10.67977 1344 ft 136 kts 88°
2026-04-24 12:19 33.87292 10.69101 1178 ft 135 kts 87°
2026-04-24 12:19 33.87386 10.70208 1000 ft 130 kts 84°
2026-04-24 12:19 33.87371 10.71308 818 ft 133 kts 88°
2026-04-24 12:19 33.87410 10.72426 643 ft 135 kts 84°
2026-04-24 12:20 33.87437 10.73548 441 ft 132 kts 86°
2026-04-24 12:20 33.87455 10.74655 292 ft 136 kts 85°
2026-04-24 12:20 33.87491 10.75787 104 ft 133 kts 84°
2026-04-24 12:20 33.87513 10.76873 26 ft 122 kts 86°
2026-04-24 12:21 33.87553 10.77722 29 ft 75 kts 86°
2026-04-24 12:21 33.87567 10.78145 30 ft 36 kts 89°
2026-04-24 12:21 33.87567 10.78438 28 ft 33 kts 90°
2026-04-24 12:21 33.87497 10.78588 30 ft 16 kts 168°
2026-04-24 12:22 33.87417 10.78558 30 ft 12 kts 227°
2026-04-24 12:22 33.87397 10.78458 30 ft 13 kts 267°
2026-04-24 12:22 33.87393 10.78356 29 ft 12 kts 268°
2026-04-24 12:22 33.87395 10.78258 29 ft 12 kts 277°
2026-04-24 12:23 33.87400 10.78160 29 ft 12 kts 268°
2026-04-24 12:23 33.87397 10.78060 28 ft 12 kts 268°
2026-04-24 12:23 33.87393 10.77961 28 ft 12 kts 267°
2026-04-24 12:23 33.87390 10.77863 28 ft 12 kts 269°
2026-04-24 12:24 33.87389 10.77764 28 ft 12 kts 269°
2026-04-24 12:24 33.87387 10.77665 27 ft 12 kts 269°
2026-04-24 12:24 33.87386 10.77567 27 ft 12 kts 269°
2026-04-24 12:24 33.87385 10.77472 27 ft 12 kts 269°
2026-04-24 12:25 33.87383 10.77411 27 ft 0 kts 269°
2026-04-24 12:26 33.87383 10.77408 27 ft 2 kts 269°
2026-04-24 12:26 33.87381 10.77333 27 ft 16 kts 265°
2026-04-24 12:26 33.87347 10.77291 26 ft 11 kts 211°
2026-04-24 12:27 33.87243 10.77226 26 ft 20 kts 189°
2026-04-24 12:27 33.87162 10.77276 26 ft 0 kts 137°